| time (UTC) | temp C | wind direction | speed KPH | gust KPH | rain 1hr cm | rain 24hr cm | rain mn cm | humidity % | barometer mb |
| 20260510224902 | 30 | 236 | 0.0 | 0.0 | 0.00 | 0.00 | 0.00 | 58 | 973.5 |
| 20260510223850 | 31 | 252 | 0.0 | 1.6 | 0.00 | 0.00 | 0.00 | 58 | 973.3 |
| 20260510222906 | 31 | 182 | 0.0 | 1.6 | 0.00 | 0.00 | 0.00 | 58 | 972.9 |
| 20260510221905 | 31 | 355 | 0.0 | 6.4 | 0.00 | 0.00 | 0.00 | 57 | 972.6 |
| 20260510220903 | 31 | 158 | 0.0 | 4.8 | 0.00 | 0.00 | 0.00 | 58 | 972.8 |
| 20260510215842 | 30 | 131 | 0.0 | 1.6 | 0.00 | 0.00 | 0.00 | 57 | 972.9 |
| 20260510214825 | 31 | 196 | 0.0 | 0.0 | 0.00 | 0.00 | 0.00 | 57 | 973.1 |
| 20260510213752 | 31 | 196 | 0.0 | 0.0 | 0.00 | 0.00 | 0.00 | 56 | 973.3 |
| 20260510212755 | 31 | 278 | 0.0 | 1.6 | 0.00 | 0.00 | 0.00 | 57 | 973.5 |
| 20260510210722 | 32 | 230 | 0.0 | 4.8 | 0.00 | 0.00 | 0.00 | 56 | 973.8 |
| 20260510205705 | 31 | 213 | 0.0 | 0.0 | 0.00 | 0.00 | 0.00 | 56 | 973.9 |
| 20260510202456 | 32 | 234 | 0.0 | 9.7 | 0.00 | 0.00 | 0.00 | 52 | 974.0 |
| 20260510201456 | 32 | 266 | 0.0 | 3.2 | 0.00 | 0.00 | 0.00 | 51 | 974.0 |
| 20260510200435 | 32 | 175 | 0.0 | 3.2 | 0.00 | 0.00 | 0.00 | 54 | 974.1 |
| 20260510195452 | 32 | 234 | 0.0 | 0.0 | 0.00 | 0.00 | 0.00 | 55 | 974.0 |
| 20260510194430 | 32 | 232 | 0.0 | 8.0 | 0.00 | 0.00 | 0.00 | 54 | 974.1 |
| 20260510191156 | 32 | 273 | 0.0 | 3.2 | 0.00 | 0.00 | 0.00 | 54 | 974.3 |
| 20260510190141 | 31 | 273 | 0.0 | 6.4 | 0.00 | 0.00 | 0.00 | 54 | 974.4 |
| 20260510185200 | 31 | 238 | 0.0 | 6.4 | 0.00 | 0.00 | 0.00 | 57 | 974.5 |
| 20260510184214 | 31 | 173 | 0.0 | 8.0 | 0.00 | 0.00 | 0.00 | 56 | 974.5 |
| 20260510183200 | 31 | 230 | 0.0 | 8.0 | 0.00 | 0.00 | 0.00 | 56 | 974.5 |
| 20260510182206 | 31 | 250 | 0.0 | 3.2 | 0.00 | 0.00 | 0.00 | 55 | 974.5 |
| 20260510181142 | 30 | 140 | 0.0 | 1.6 | 0.00 | 0.00 | 0.00 | 57 | 974.4 |
| 20260510180128 | 30 | 132 | 0.0 | 3.2 | 0.00 | 0.00 | 0.00 | 58 | 974.6 |
| 20260510173946 | 30 | 348 | 0.0 | 6.4 | 0.00 | 0.00 | 0.00 | 59 | 974.9 |
| 20260510172938 | 30 | 248 | 0.0 | 8.0 | 0.00 | 0.00 | 0.00 | 59 | 975.0 |
| 20260510170825 | 30 | 244 | 0.0 | 3.2 | 0.00 | 0.00 | 0.00 | 59 | 975.5 |
| 20260510165757 | 30 | 186 | 0.0 | 0.0 | 0.00 | 0.00 | 0.00 | 59 | 975.5 |
| 20260510162451 | 30 | 191 | 0.0 | 1.6 | 0.00 | 0.00 | 0.00 | 59 | 975.5 |
| 20260510160404 | 28 | 191 | 0.0 | 0.0 | 0.00 | 0.00 | 0.00 | 59 | 975.5 |
| 20260510155427 | 28 | 192 | 0.0 | 0.0 | 0.00 | 0.00 | 0.00 | 59 | 975.6 |
| 20260510154419 | 28 | 192 | 0.0 | 0.0 | 0.00 | 0.00 | 0.00 | 59 | 975.5 |
| 20260510153424 | 28 | 192 | 0.0 | 0.0 | 0.00 | 0.00 | 0.00 | 59 | 975.5 |
| 20260510152444 | 28 | 192 | 0.0 | 0.0 | 0.00 | 0.00 | 0.00 | 58 | 975.4 |
| 20260510151428 | 27 | 192 | 0.0 | 0.0 | 0.00 | 0.00 | 0.00 | 58 | 975.4 |
| 20260510150453 | 26 | 192 | 0.0 | 0.0 | 0.00 | 0.00 | 0.00 | 56 | 975.3 |
| 20260510145430 | 26 | 192 | 0.0 | 0.0 | 0.00 | 0.00 | 0.00 | 56 | 975.3 |
| 20260510144449 | 26 | 190 | 0.0 | 1.6 | 0.00 | 0.00 | 0.00 | 53 | 975.3 |
| 20260510143509 | 25 | 190 | 0.0 | 0.0 | 0.00 | 0.00 | 0.00 | 50 | 975.2 |
| 20260510142507 | 25 | 190 | 0.0 | 0.0 | 0.00 | 0.00 | 0.00 | 45 | 975.1 |
| 20260510141527 | 25 | 190 | 0.0 | 0.0 | 0.00 | 0.00 | 0.00 | 30 | 975.0 |
| 20260510140543 | 25 | 190 | 0.0 | 0.0 | 0.00 | 0.00 | 0.00 | 8 | 975.0 |
| 20260510135606 | 24 | 190 | 0.0 | 0.0 | 0.00 | 0.00 | 0.00 | 1 | 974.8 |
| 20260510134605 | 23 | 190 | 0.0 | 0.0 | 0.00 | 0.00 | 0.00 | 1 | 974.7 |
| 20260510133617 | 23 | 190 | 0.0 | 0.0 | 0.00 | 0.00 | 0.00 | 1 | 974.5 |
| 20260510132640 | 22 | 190 | 0.0 | 0.0 | 0.00 | 0.00 | 0.00 | 1 | 974.3 |
| 20260510131609 | 22 | 190 | 0.0 | 0.0 | 0.00 | 0.00 | 0.00 | 1 | 974.2 |
| 20260510130549 | 21 | 190 | 0.0 | 0.0 | 0.00 | 0.00 | 0.00 | 1 | 974.1 |
| 20260510125559 | 21 | 190 | 0.0 | 0.0 | 0.00 | 0.00 | 0.00 | 1 | 973.8 |
| 20260510123446 | 20 | 190 | 0.0 | 0.0 | 0.00 | 0.00 | 0.00 | 1 | 973.6 |
| 20260510122504 | 20 | 190 | 0.0 | 0.0 | 0.00 | 0.00 | 0.00 | 1 | 973.3 |
| 20260510121528 | 20 | 190 | 0.0 | 0.0 | 0.00 | 0.00 | 0.00 | 1 | 973.1 |
| 20260510115405 | 20 | 190 | 0.0 | 0.0 | 0.00 | 0.00 | 0.00 | 1 | 973.0 |
| 20260510113240 | 21 | 190 | 0.0 | 0.0 | 0.00 | 0.00 | 0.00 | 1 | 972.8 |
| 20260510112244 | 21 | 190 | 0.0 | 0.0 | 0.00 | 0.00 | 0.00 | 1 | 972.7 |
| 20260510111301 | 21 | 190 | 0.0 | 0.0 | 0.00 | 0.00 | 0.00 | 1 | 972.8 |
| 20260510110302 | 21 | 190 | 0.0 | 0.0 | 0.00 | 0.00 | 0.00 | 1 | 972.8 |
| 20260510105318 | 21 | 190 | 0.0 | 0.0 | 0.00 | 0.00 | 0.00 | 1 | 972.7 |
| 20260510104255 | 21 | 190 | 0.0 | 0.0 | 0.00 | 0.00 | 0.00 | 1 | 972.6 |
| 20260510103316 | 21 | 190 | 0.0 | 3.2 | 0.00 | 0.00 | 0.00 | 1 | 972.4 |
| 20260510102257 | 21 | 186 | 0.0 | 0.0 | 0.00 | 0.00 | 0.00 | 1 | 972.4 |
| 20260510101247 | 21 | 186 | 0.0 | 0.0 | 0.00 | 0.00 | 0.00 | 1 | 972.2 |
| 20260510100226 | 21 | 186 | 0.0 | 0.0 | 0.00 | 0.00 | 0.00 | 1 | 972.0 |
| 20260510095250 | 21 | 186 | 0.0 | 0.0 | 0.00 | 0.00 | 0.00 | 1 | 972.1 |
| 20260510094225 | 21 | 186 | 0.0 | 0.0 | 0.00 | 0.00 | 0.00 | 1 | 972.2 |
| 20260510093158 | 21 | 186 | 0.0 | 0.0 | 0.00 | 0.00 | 0.00 | 1 | 972.0 |
| 20260510092155 | 21 | 186 | 0.0 | 0.0 | 0.00 | 0.00 | 0.00 | 1 | 972.1 |
| 20260510090004 | 21 | 183 | 0.0 | 0.0 | 0.00 | 0.00 | 0.00 | 1 | 971.9 |
| 20260510084935 | 21 | 183 | 0.0 | 0.0 | 0.00 | 0.00 | 0.00 | 1 | 971.9 |
| 20260510083908 | 21 | 183 | 0.0 | 0.0 | 0.00 | 0.00 | 0.00 | 1 | 972.2 |
| 20260510082854 | 21 | 183 | 0.0 | 0.0 | 0.00 | 0.00 | 0.00 | 1 | 972.2 |
| 20260510081828 | 21 | 183 | 0.0 | 0.0 | 0.00 | 0.00 | 0.00 | 1 | 972.1 |
| 20260510080815 | 21 | 183 | 0.0 | 0.0 | 0.00 | 0.00 | 0.00 | 1 | 972.3 |
| 20260510075742 | 21 | 183 | 0.0 | 0.0 | 0.00 | 0.00 | 0.00 | 1 | 972.4 |
| 20260510074709 | 21 | 183 | 0.0 | 0.0 | 0.00 | 0.00 | 0.00 | 1 | 972.5 |
| 20260510073712 | 21 | 183 | 0.0 | 0.0 | 0.00 | 0.00 | 0.00 | 1 | 972.6 |
| 20260510072654 | 21 | 183 | 0.0 | 0.0 | 0.00 | 0.00 | 0.00 | 1 | 972.5 |
| 20260510071702 | 21 | 183 | 0.0 | 0.0 | 0.00 | 0.00 | 0.00 | 1 | 972.4 |
| 20260510065544 | 21 | 182 | 0.0 | 0.0 | 0.00 | 0.00 | 0.00 | 7 | 972.3 |
| 20260510064522 | 21 | 181 | 0.0 | 0.0 | 0.00 | 0.00 | 0.00 | 9 | 972.4 |
| 20260510063532 | 21 | 182 | 0.0 | 0.0 | 0.00 | 0.00 | 0.00 | 14 | 972.4 |
| 20260510061429 | 22 | 182 | 0.0 | 0.0 | 0.00 | 0.00 | 0.00 | 29 | 972.4 |
| 20260510060445 | 22 | 182 | 0.0 | 0.0 | 0.00 | 0.00 | 0.00 | 32 | 972.3 |
| 20260510055434 | 22 | 180 | 0.0 | 0.0 | 0.00 | 0.00 | 0.00 | 30 | 972.1 |
| 20260510054406 | 22 | 180 | 0.0 | 0.0 | 0.00 | 0.00 | 0.00 | 29 | 972.2 |
| 20260510053421 | 22 | 180 | 0.0 | 0.0 | 0.00 | 0.00 | 0.00 | 18 | 972.2 |
| 20260510051309 | 22 | 180 | 0.0 | 0.0 | 0.00 | 0.00 | 0.00 | 1 | 972.3 |
| 20260510050326 | 22 | 180 | 0.0 | 0.0 | 0.00 | 0.00 | 0.00 | 1 | 972.2 |
| 20260510045348 | 22 | 180 | 0.0 | 0.0 | 0.00 | 0.00 | 0.00 | 1 | 972.2 |
| 20260510043210 | 23 | 180 | 0.0 | 0.0 | 0.00 | 0.00 | 0.00 | 1 | 972.1 |
| 20260510042219 | 23 | 180 | 0.0 | 0.0 | 0.00 | 0.00 | 0.00 | 1 | 972.2 |
| 20260510041148 | 23 | 180 | 0.0 | 0.0 | 0.00 | 0.00 | 0.00 | 1 | 972.1 |
| 20260510040205 | 23 | 180 | 0.0 | 0.0 | 0.00 | 0.00 | 0.00 | 2 | 972.1 |
| 20260510035145 | 23 | 180 | 0.0 | 0.0 | 0.00 | 0.00 | 0.00 | 2 | 972.0 |
| 20260510034119 | 23 | 180 | 0.0 | 0.0 | 0.00 | 0.00 | 0.00 | 2 | 972.0 |
| 20260510033058 | 23 | 180 | 0.0 | 0.0 | 0.00 | 0.00 | 0.00 | 4 | 971.9 |
| 20260510032029 | 24 | 180 | 0.0 | 0.0 | 0.00 | 0.00 | 0.00 | 11 | 971.8 |
| 20260510031046 | 24 | 180 | 0.0 | 0.0 | 0.00 | 0.00 | 0.00 | 11 | 971.8 |
| 20260510030107 | 23 | 180 | 0.0 | 0.0 | 0.00 | 0.00 | 0.00 | 14 | 971.6 |
| 20260510025108 | 23 | 180 | 0.0 | 0.0 | 0.00 | 0.00 | 0.00 | 23 | 971.5 |
| 20260510024101 | 23 | 180 | 0.0 | 0.0 | 0.00 | 0.00 | 0.00 | 30 | 971.3 |
| 20260510021902 | 24 | 180 | 0.0 | 0.0 | 0.00 | 0.00 | 0.00 | 50 | 971.0 |
| 20260510020918 | 24 | 180 | 0.0 | 0.0 | 0.00 | 0.00 | 0.00 | 55 | 970.9 |
| 20260510015846 | 25 | 180 | 0.0 | 0.0 | 0.00 | 0.00 | 0.00 | 60 | 970.7 |
| 20260510014853 | 25 | 180 | 0.0 | 0.0 | 0.00 | 0.00 | 0.00 | 62 | 970.7 |
| 20260510013821 | 26 | 180 | 0.0 | 0.0 | 0.00 | 0.00 | 0.00 | 62 | 970.6 |
| 20260510011624 | 27 | 180 | 0.0 | 0.0 | 0.00 | 0.00 | 0.00 | 61 | 970.5 |
| 20260510010630 | 27 | 180 | 0.0 | 0.0 | 0.00 | 0.00 | 0.00 | 59 | 970.3 |
| 20260510005618 | 28 | 180 | 0.0 | 0.0 | 0.00 | 0.00 | 0.00 | 57 | 970.3 |
| 20260510002251 | 29 | 180 | 0.0 | 0.0 | 0.00 | 0.00 | 0.00 | 54 | 969.9 |
| 20260510000128 | 30 | 180 | 0.0 | 0.0 | 0.00 | 0.00 | 0.00 | 51 | 969.8 |
| 20260509235119 | 31 | 180 | 0.0 | 0.0 | 0.00 | 0.00 | 0.00 | 49 | 969.7 |
| 20260509233026 | 32 | 180 | 0.0 | 0.0 | 0.00 | 0.00 | 0.00 | 46 | 969.7 |
| 20260509232047 | 32 | 180 | 0.0 | 0.0 | 0.00 | 0.00 | 0.00 | 45 | 969.6 |
| 20260509231052 | 33 | 180 | 0.0 | 0.0 | 0.00 | 0.00 | 0.00 | 44 | 969.6 |
| 20260509230046 | 33 | 180 | 0.0 | 0.0 | 0.00 | 0.00 | 0.00 | 43 | 969.5 |
| 20260509225023 | 33 | 180 | 0.0 | 0.0 | 0.00 | 0.00 | 0.00 | 44 | 969.6 |